Date,TemperatureHighF,TemperatureAvgF,TemperatureLowF,DewpointHighF,DewpointAvgF,DewpointLowF,HumidityHigh,HumidityAvg,HumidityLow,PressureMaxIn,PressureMinIn,WindSpeedMaxMPH,WindSpeedAvgMPH,GustSpeedMaxMPH,PrecipitationSumIn
2013-1-1,34,31,22,30,26,14,91,79,68,30.00,29.82,10,2,10,0.00
2013-1-2,28,23,17,18,15,12,79,73,62,30.18,29.98,6,1,12,0.00
2013-1-3,28,23,18,21,17,14,84,76,67,30.19,30.06,10,0,10,0.00
2013-1-4,32,30,27,24,23,21,82,75,69,30.08,29.95,10,3,15,0.00
2013-1-5,37,31,27,26,23,20,80,72,61,30.28,30.00,15,2,15,0.01
2013-1-6,40,34,29,31,28,23,94,80,67,30.20,29.96,7,1,7,0.07
2013-1-7,39,35,32,30,28,25,83,75,62,30.38,30.04,11,1,11,0.09
2013-1-8,43,36,30,33,29,25,83,77,65,30.39,30.32,6,1,7,0.10
2013-1-9,42,38,33,38,33,28,90,83,74,30.36,30.14,9,1,11,0.15
2013-1-10,43,38,35,33,29,27,79,69,59,30.52,30.23,12,2,13,0.03
2013-1-11,42,37,33,41,33,26,99,85,71,30.51,30.07,4,0,5,0.48
2013-1-12,44,41,38,44,40,37,100,99,99,30.15,30.06,5,0,5,0.01
2013-1-13,46,43,40,46,43,40,100,100,100,30.12,29.97,4,0,4,0.01
2013-1-14,50,45,35,50,43,31,100,91,66,30.27,29.85,11,1,11,0.06
2013-1-15,35,32,31,32,29,27,94,88,81,30.34,30.18,9,0,9,0.06
2013-1-16,32,30,29,32,30,28,99,98,93,30.19,29.78,4,0,5,0.13
2013-1-17,37,33,31,33,30,25,99,87,74,30.09,29.90,11,1,11,0.05
2013-1-18,30,24,20,26,15,9,86,69,53,30.45,29.98,15,2,18,0.00
2013-1-19,45,34,23,31,26,14,85,71,55,30.38,29.89,11,1,12,0.17
2013-1-20,48,37,25,34,26,13,80,64,40,30.01,29.69,17,3,20,0.08
2013-1-21,26,23,20,18,14,10,84,67,60,30.07,29.83,10,1,15,0.00
2013-1-22,21,13,8,12,2,-5,70,60,49,30.21,29.83,18,4,18,0.00
2013-1-23,15,9,5,4,0,-4,75,66,53,30.25,30.16,10,1,13,0.00
2013-1-24,19,12,7,5,3,0,78,66,48,30.41,30.11,20,3,20,0.00
2013-1-25,19,12,8,12,6,-1,92,75,58,30.42,30.05,10,1,13,0.00
2013-1-26,22,16,10,11,9,7,92,75,59,30.38,30.04,17,2,17,0.00
2013-1-27,30,21,12,17,12,7,81,69,52,30.54,30.38,12,1,12,0.00
2013-1-28,32,28,23,32,24,13,98,88,65,30.48,30.00,5,0,5,0.00
2013-1-29,48,40,32,46,39,32,100,96,89,30.13,30.00,5,0,5,0.26
2013-1-30,60,49,40,60,49,40,100,100,99,30.02,29.29,15,1,15,0.35
2013-1-31,58,39,24,58,31,13,100,75,53,29.77,29.02,23,5,25,1.66
2013-2-1,26,22,17,18,14,8,91,70,48,30.23,29.77,16,3,17,0.00
2013-2-2,22,17,12,18,11,6,93,77,60,30.29,30.02,7,1,11,0.00
2013-2-3,25,21,17,21,18,16,94,89,79,30.02,29.79,7,0,7,0.01
2013-2-4,24,21,16,19,13,11,89,71,60,29.97,29.81,13,2,14,0.00
2013-2-5,28,25,22,25,22,16,96,91,76,29.95,29.87,2,0,2,0.00
2013-2-6,34,28,23,26,22,13,97,79,58,30.33,29.90,13,1,13,0.00
2013-2-7,29,24,17,22,15,10,81,69,60,30.48,30.28,4,0,5,0.00
2013-2-8,32,29,27,30,27,22,97,93,81,30.28,29.66,14,2,14,0.00
2013-2-9,29,23,16,28,17,8,98,79,56,30.35,29.75,20,5,20,0.00
2013-2-10,36,24,13,21,14,8,84,67,47,30.47,30.29,8,1,9,0.01
2013-2-11,41,35,27,40,33,20,99,95,74,30.29,29.65,10,0,10,0.09
2013-2-12,38,36,31,36,28,24,99,74,65,29.97,29.72,15,3,17,0.00
2013-2-13,40,32,26,31,27,22,97,79,65,29.94,29.67,4,0,4,0.00
2013-2-14,40,34,28,32,29,27,98,84,67,29.99,29.69,5,0,5,0.11
2013-2-15,49,39,31,36,31,28,96,75,54,29.99,29.90,11,1,11,0.01
2013-2-16,32,29,24,31,25,13,98,84,63,29.95,29.75,15,1,15,0.06
2013-2-17,26,21,14,14,9,2,69,58,49,30.01,29.70,23,6,23,0.00
2013-2-18,31,21,11,16,9,2,70,60,50,30.27,30.01,21,4,21,0.00
2013-2-19,38,32,26,38,27,15,98,82,59,30.17,29.68,13,1,13,0.40
2013-2-20,32,24,20,25,14,11,78,67,60,29.99,29.73,20,5,20,0.00
2013-2-21,30,23,19,19,15,11,81,71,62,30.29,29.98,17,4,17,0.00
2013-2-22,33,26,18,29,21,14,93,81,71,30.39,30.23,12,1,12,0.00
2013-2-23,39,35,31,38,34,29,99,98,93,30.24,29.80,5,0,7,0.19
2013-2-24,40,34,29,38,30,23,99,88,74,29.98,29.75,14,2,15,0.00
2013-2-25,38,33,28,30,27,22,87,79,70,30.23,29.97,10,1,10,0.00
2013-2-26,40,34,31,34,30,26,96,83,74,30.25,29.81,12,1,12,0.26
2013-2-27,43,39,32,42,38,31,99,94,86,29.82,29.49,13,2,16,0.45
2013-2-28,41,38,32,36,33,30,95,84,68,29.62,29.54,9,1,9,0.00
2013-3-1,41,34,30,32,29,26,96,82,69,29.79,29.60,12,2,14,0.00
2013-3-2,34,30,26,26,23,21,83,78,69,29.79,29.71,13,3,13,0.00
2013-3-3,32,27,24,22,19,17,80,74,65,29.78,29.69,16,3,16,0.00
2013-3-4,37,29,24,23,20,16,80,70,57,29.92,29.77,21,5,21,0.00
2013-3-5,45,34,27,30,26,22,80,70,56,30.02,29.92,12,2,14,0.00
2013-3-6,39,35,33,34,30,27,94,83,76,29.94,29.81,19,4,22,0.03
2013-3-7,40,34,29,32,28,25,96,81,67,30.08,29.92,16,4,18,0.00
2013-3-8,40,31,26,36,28,25,98,89,73,30.22,30.01,17,4,17,0.08
2013-3-9,54,41,29,30,25,22,78,56,34,30.29,30.18,10,2,11,0.00
2013-3-10,53,41,32,39,31,21,94,71,44,30.34,30.24,7,0,7,0.00
2013-3-11,53,42,33,47,40,32,100,92,70,30.29,30.03,6,0,6,0.00
2013-3-12,54,48,40,54,48,36,100,96,86,30.03,29.64,13,2,13,1.30
2013-3-13,44,38,31,37,30,23,92,75,54,29.89,29.79,11,2,11,0.01
2013-3-14,37,30,25,23,16,12,71,57,39,29.96,29.84,24,5,24,0.00
2013-3-15,42,34,23,33,23,14,74,64,54,29.97,29.71,15,2,15,0.00
2013-3-16,39,31,29,32,26,22,95,82,69,29.91,29.75,9,0,9,0.05
2013-3-17,32,29,24,28,21,16,95,74,61,30.29,29.90,10,1,10,0.03
2013-3-18,31,27,23,29,20,12,97,76,60,30.37,29.93,7,0,10,0.00
2013-3-19,43,34,30,37,31,20,99,88,55,29.93,29.68,17,1,18,0.64
2013-3-20,40,33,27,25,22,19,75,63,48,29.87,29.76,15,2,15,0.08
2013-3-21,34,29,25,27,19,14,93,69,50,29.82,29.63,10,1,10,0.02
2013-3-22,36,29,23,24,20,14,80,69,55,29.88,29.72,14,2,14,0.00
2013-3-23,41,34,28,26,22,20,76,64,51,29.93,29.83,15,3,16,0.00
2013-3-24,43,35,28,27,23,19,70,61,49,29.94,29.68,12,1,12,0.00
2013-3-25,35,33,31,32,29,26,97,87,70,29.68,29.46,6,0,6,0.18
2013-3-26,46,37,31,34,31,28,98,80,51,29.86,29.60,11,1,11,0.04
2013-3-27,47,38,31,33,29,25,86,72,47,29.99,29.86,14,2,15,0.00
2013-3-28,44,38,31,32,30,28,89,74,60,30.11,29.95,11,2,13,0.00
2013-3-29,50,42,34,33,31,28,78,66,51,30.14,30.06,11,2,12,0.00
2013-3-30,55,44,33,32,29,23,85,58,34,30.17,30.05,9,1,9,0.00
2013-3-31,54,45,38,42,35,23,98,70,43,30.09,29.66,10,1,10,0.18
2013-4-1,56,41,32,46,32,16,100,75,44,29.89,29.63,15,3,20,0.02
2013-4-2,39,33,27,20,17,15,67,52,40,30.08,29.89,16,2,16,0.00
2013-4-3,42,33,27,21,16,14,64,50,38,30.29,30.07,16,3,16,0.00
2013-4-4,51,38,26,29,22,16,69,55,41,30.37,30.05,15,1,15,0.00
2013-4-5,59,45,34,33,28,23,78,54,30,30.05,29.73,15,2,15,0.00
2013-4-6,50,39,29,28,20,16,67,48,29,30.28,29.98,13,2,13,0.00
2013-4-7,60,47,34,44,36,28,85,67,46,30.27,29.97,11,1,12,0.00
2013-4-8,74,60,49,52,47,43,81,64,36,30.05,29.92,9,1,9,0.00
2013-4-9,79,68,58,56,50,44,83,55,30,29.95,29.85,16,2,17,0.01
2013-4-10,82,66,56,62,56,50,99,71,50,29.90,29.75,17,1,17,0.68
2013-4-11,58,53,44,58,52,42,100,94,81,29.98,29.72,7,1,7,0.01
2013-4-12,44,40,38,42,39,38,99,96,87,29.93,29.69,10,2,11,0.58
2013-4-13,54,45,37,41,38,35,99,77,56,29.94,29.73,12,1,13,0.00
2013-4-14,56,49,44,37,34,30,73,58,43,30.17,29.93,13,2,14,0.00
2013-4-15,59,48,40,42,36,30,74,62,52,30.33,30.17,6,1,7,0.00
2013-4-16,67,56,44,58,50,38,94,82,68,30.32,30.08,11,1,11,0.00
2013-4-17,68,59,50,57,44,37,96,62,32,30.25,30.08,14,1,14,0.00
2013-4-18,56,51,46,52,46,40,99,83,65,30.28,30.05,12,1,12,0.00
2013-4-19,74,62,52,67,60,50,100,94,76,30.05,29.58,12,1,12,0.84
2013-4-20,53,47,40,50,36,25,97,68,46,30.29,29.66,15,3,15,0.10
2013-4-21,53,41,31,30,26,21,70,55,39,30.59,30.29,11,2,12,0.00
2013-4-22,53,43,35,39,33,28,87,68,52,30.61,30.44,10,1,10,0.00
2013-4-23,47,41,36,42,37,32,90,84,77,30.44,30.11,7,0,7,0.00
2013-4-24,70,54,40,57,48,37,92,79,60,30.12,29.78,7,0,9,0.00
2013-4-25,62,51,40,56,34,30,88,54,34,30.24,29.82,18,2,18,0.00
2013-4-26,62,52,44,37,33,29,69,50,31,30.38,30.24,10,1,10,0.00
2013-4-27,69,55,43,42,36,30,63,50,35,30.40,30.25,7,0,7,0.00
2013-4-28,69,58,48,47,41,36,70,54,42,30.28,30.15,6,0,7,0.00
2013-4-29,52,50,48,49,47,43,100,88,71,30.19,30.13,3,0,7,0.17
2013-4-30,65,53,47,53,44,30,100,74,34,30.31,30.17,8,0,9,0.01
2013-5-1,68,55,45,48,37,27,81,53,31,30.45,30.29,6,0,9,0.00
2013-5-2,73,58,45,51,45,42,88,64,43,30.43,30.28,5,0,5,0.00
2013-5-3,66,55,45,44,42,37,87,61,37,30.40,30.29,7,0,7,0.00
2013-5-4,70,54,42,49,44,40,94,70,39,30.33,30.18,5,0,5,0.00
2013-5-5,66,51,41,49,42,38,93,74,42,30.25,30.17,5,0,5,0.00
2013-5-6,69,54,42,56,48,40,97,83,62,30.23,30.11,5,0,6,0.00
2013-5-7,72,60,48,60,54,47,97,82,63,30.13,30.04,5,0,5,0.00
2013-5-8,66,58,54,63,57,54,100,98,85,30.05,29.91,5,0,5,2.17
2013-5-9,65,57,52,59,55,52,100,93,77,29.96,29.87,3,0,4,0.12
2013-5-10,77,65,54,63,59,54,100,81,53,29.98,29.86,4,0,5,0.06
2013-5-11,68,62,58,66,61,57,100,98,88,29.88,29.67,5,0,6,0.92
2013-5-12,60,55,45,57,44,32,99,68,41,29.92,29.65,12,1,12,0.00
2013-5-13,51,44,40,34,32,30,79,63,47,30.11,29.92,6,1,10,0.00
2013-5-14,57,47,36,35,32,29,85,59,36,30.14,30.01,9,0,9,0.00
2013-5-15,71,58,46,60,48,32,85,70,52,30.04,29.66,3,0,4,0.00
2013-5-16,73,63,60,60,57,52,88,80,58,29.79,29.68,2,0,2,0.00
2013-5-17,70,61,53,50,45,42,71,56,44,30.16,29.82,1,0,7,0.01
2013-5-18,60,56,54,55,53,44,97,88,61,30.27,30.16,2,0,2,0.04
2013-5-19,57,55,52,57,54,52,100,99,96,30.26,30.13,4,0,4,0.26
2013-5-20,76,64,55,70,62,55,100,95,81,30.15,29.93,1,0,1,0.00
2013-5-21,84,72,64,75,69,63,100,90,71,29.94,29.81,2,0,2,0.00
2013-5-22,82,72,66,75,69,66,100,92,75,29.88,29.77,1,0,1,0.00
2013-5-23,72,68,62,70,67,61,100,98,87,29.84,29.71,4,0,4,1.21
2013-5-24,61,50,40,61,50,40,100,98,86,29.97,29.66,12,1,16,0.15
2013-5-25,53,46,40,44,40,37,99,81,59,30.01,29.91,14,2,14,0.09
2013-5-26,64,53,43,43,40,36,85,62,41,30.19,29.98,17,1,17,0.08
2013-5-27,71,58,45,48,42,35,78,56,40,30.23,30.11,4,0,4,0.04
2013-5-28,58,55,54,55,53,46,100,94,65,30.19,30.09,2,0,2,0.33
2013-5-29,81,67,55,73,64,55,100,90,72,30.10,29.98,3,0,3,0.00
2013-5-30,88,77,68,73,68,66,94,74,52,30.11,30.03,2,0,2,0.00
2013-5-31,88,78,70,75,69,63,90,73,53,30.08,29.96,1,0,1,0.00
2013-6-1,88,78,68,75,70,66,95,79,63,29.98,29.86,1,0,1,0.00
2013-6-2,82,75,69,74,70,67,99,86,72,29.87,29.74,7,0,7,0.22
2013-6-3,76,68,61,69,65,52,100,91,72,29.87,29.76,3,0,3,0.24
2013-6-4,71,60,51,53,49,43,84,68,47,30.09,29.87,6,1,6,0.00
2013-6-5,73,62,52,57,49,41,84,63,50,30.17,30.07,3,0,3,0.00
2013-6-6,66,59,52,59,56,51,99,90,68,30.10,29.94,3,0,3,0.32
2013-6-7,61,59,57,61,59,57,100,100,99,29.94,29.60,4,0,7,2.04
2013-6-8,72,63,55,66,61,55,100,93,79,30.03,29.59,8,0,8,0.09
2013-6-9,78,68,57,65,61,56,98,80,61,30.15,30.03,3,0,3,0.00
2013-6-10,68,64,62,68,63,61,100,95,78,30.11,29.75,3,0,3,0.76
2013-6-11,74,68,65,69,67,65,100,95,82,29.75,29.62,4,0,4,0.00
2013-6-12,74,69,59,62,59,55,93,70,58,29.83,29.70,9,1,9,0.00
2013-6-13,64,59,54,60,58,54,100,95,75,29.81,29.41,5,0,5,1.06
2013-6-14,70,57,50,64,55,50,100,93,70,29.89,29.51,8,0,8,0.16
2013-6-15,74,66,56,63,58,55,95,78,55,30.00,29.89,6,0,6,0.00
2013-6-16,75,68,62,67,61,52,94,77,64,29.97,29.76,5,0,5,0.00
2013-6-17,82,72,64,71,67,63,98,84,63,29.89,29.80,4,0,4,0.00
2013-6-18,80,68,59,72,66,59,100,92,69,29.86,29.77,4,0,5,0.23
2013-6-19,74,64,55,59,55,52,100,76,53,30.13,29.85,6,0,6,0.00
2013-6-20,77,67,57,65,60,53,95,78,60,30.23,30.13,3,0,3,0.00
2013-6-21,80,69,58,66,59,51,83,71,57,30.27,30.19,3,0,3,0.00
2013-6-22,81,70,60,70,64,52,89,80,67,30.23,30.09,3,0,3,0.00
2013-6-23,85,74,66,74,69,64,97,85,68,30.16,30.02,2,0,2,0.00
2013-6-24,88,75,66,75,70,64,100,87,62,30.05,29.93,5,0,6,0.24
2013-6-25,85,70,67,76,68,66,98,93,71,29.98,29.78,2,0,6,0.18
2013-6-26,82,73,66,75,68,64,99,87,71,29.83,29.76,3,0,4,0.00
2013-6-27,84,75,67,75,70,66,100,87,71,29.79,29.48,6,0,6,2.64
2013-6-28,81,73,66,73,70,65,100,91,74,29.52,29.43,4,0,4,0.03
2013-6-29,81,72,64,72,67,64,100,86,68,29.67,29.44,2,0,2,0.00
2013-6-30,81,73,68,76,70,65,98,91,79,29.86,29.66,1,0,3,0.00
2013-7-1,73,71,68,73,71,68,100,100,98,29.99,29.84,1,0,1,1.17
2013-7-2,80,73,71,77,72,70,100,97,87,30.14,29.99,1,0,1,0.09
2013-7-3,80,74,69,76,73,69,100,95,85,30.21,30.13,0,0,2,0.01
2013-7-4,85,77,72,78,74,72,100,91,74,30.22,30.12,2,0,2,0.00
2013-7-5,88,78,71,78,74,71,100,87,68,30.17,30.06,2,0,3,0.00
2013-7-6,88,80,73,78,75,72,97,85,69,30.12,30.00,4,0,4,0.00
2013-7-7,89,79,69,80,74,68,99,86,69,30.04,29.91,6,0,9,0.03
2013-7-8,84,74,66,74,70,66,100,88,71,30.02,29.95,2,0,3,0.00
2013-7-9,83,74,68,75,70,65,99,89,74,30.04,29.96,3,0,5,0.21
2013-7-10,82,75,70,76,73,70,100,93,77,29.98,29.78,2,0,3,0.00
2013-7-11,79,75,71,74,70,63,100,87,73,29.89,29.77,0,0,3,0.00
2013-7-12,73,69,66,69,66,62,100,91,75,30.04,29.89,4,0,5,0.17
2013-7-13,79,70,65,76,70,65,100,99,89,30.25,30.03,4,0,4,0.08
2013-7-14,86,77,72,78,74,72,100,90,71,30.31,30.22,3,0,3,0.00
2013-7-15,89,80,71,79,75,71,100,85,68,30.23,30.11,5,0,5,0.00
2013-7-16,88,78,70,74,71,68,93,82,60,30.18,30.11,1,0,4,0.00
2013-7-17,92,81,73,78,73,68,90,76,57,30.17,30.03,4,0,4,0.00
2013-7-18,94,83,74,80,75,71,93,79,61,30.04,29.93,4,0,4,0.00
2013-7-19,92,83,76,81,76,71,95,81,66,29.94,29.76,4,0,4,0.00
2013-7-20,87,78,72,78,73,70,94,85,66,29.81,29.71,4,0,4,0.03
2013-7-21,84,76,71,74,71,68,96,84,66,29.92,29.80,3,0,3,0.00
2013-7-22,84,74,68,77,71,66,100,92,78,29.92,29.75,2,0,2,0.67
2013-7-23,81,73,70,76,72,70,100,96,82,29.75,29.55,4,0,5,0.92
2013-7-24,74,69,60,70,64,54,98,87,72,29.91,29.60,4,0,4,0.01
2013-7-25,67,61,56,62,57,53,94,86,81,30.02,29.90,3,0,4,0.00
2013-7-26,80,68,59,66,61,57,96,82,58,30.03,29.97,3,0,3,0.00
2013-7-27,81,71,63,70,65,59,92,81,67,30.01,29.91,0,0,3,0.00
2013-7-28,75,68,64,72,67,62,100,97,86,29.94,29.87,0,0,4,0.58
2013-7-29,78,69,62,69,63,57,100,83,56,30.08,29.93,1,0,4,0.00
2013-7-30,76,67,58,64,60,56,93,79,65,30.15,30.08,1,0,4,0.00
2013-7-31,78,69,61,66,63,58,94,83,63,30.13,29.99,0,0,3,0.00
2013-8-1,66,66,63,66,65,63,100,97,94,29.99,29.80,0,0,4,1.33
2013-8-2,78,69,61,69,65,60,100,87,68,29.89,29.78,3,0,4,0.01
2013-8-3,73,67,62,68,63,58,100,89,75,29.89,29.82,4,0,4,0.07
2013-8-4,73,66,60,65,60,54,99,81,63,29.96,29.84,7,0,7,0.00
2013-8-5,73,67,55,59,56,52,91,67,55,30.05,29.95,4,0,4,0.00
2013-8-6,78,68,60,65,59,52,94,74,57,30.08,30.00,3,0,3,0.00
2013-8-7,72,67,63,70,66,62,100,96,87,30.10,30.01,1,0,1,0.12
2013-8-8,80,71,67,77,70,67,100,99,87,30.02,29.94,1,0,1,0.58
2013-8-9,80,73,70,77,73,70,100,99,87,29.96,29.77,1,0,1,0.24
2013-8-10,78,70,64,71,66,59,100,88,69,30.02,29.84,5,0,5,0.01
2013-8-11,77,68,59,68,61,54,93,80,63,30.10,29.99,2,0,3,0.00
2013-8-12,80,71,64,70,66,63,100,86,62,30.01,29.89,1,0,1,0.09
2013-8-13,77,69,64,72,68,63,100,96,80,29.90,29.66,6,0,7,1.29
2013-8-14,68,61,54,63,55,50,99,80,66,30.03,29.75,9,1,9,0.00
2013-8-15,73,62,52,60,54,50,95,75,53,30.13,30.03,5,0,5,0.00
2013-8-16,76,66,58,62,57,53,89,73,56,30.17,30.09,3,0,3,0.00
2013-8-17,79,68,59,65,60,56,93,78,56,30.24,30.17,2,0,3,0.00
2013-8-18,69,65,63,65,62,58,99,88,77,30.23,30.11,0,0,1,0.03
2013-8-19,71,66,60,66,63,60,100,92,76,30.11,30.02,1,0,2,0.00
2013-8-20,83,71,62,72,67,62,100,87,64,30.11,30.03,2,0,2,0.00
2013-8-21,84,74,65,70,67,63,94,79,59,30.15,30.01,2,0,2,0.00
2013-8-22,75,71,67,75,70,67,100,97,91,30.03,29.86,1,0,2,2.36
2013-8-23,73,68,65,67,63,59,99,85,66,30.07,29.87,1,0,4,0.00
2013-8-24,75,69,58,62,58,52,88,68,55,30.32,30.08,4,0,4,0.00
2013-8-25,77,66,58,64,59,55,93,78,60,30.37,30.21,3,0,3,0.00
2013-8-26,77,69,62,71,64,57,98,84,75,30.21,29.90,3,0,3,0.05
2013-8-27,81,73,67,73,69,66,100,88,71,29.90,29.81,3,0,4,0.02
2013-8-28,74,71,68,72,70,68,100,96,87,29.86,29.81,0,0,1,0.54
2013-8-29,76,70,66,73,69,66,100,97,85,30.00,29.85,2,0,2,0.01
2013-8-30,77,70,65,73,69,65,99,95,84,30.00,29.83,2,0,2,0.00
2013-8-31,82,74,69,76,72,69,100,95,83,29.84,29.75,1,0,1,0.00
2013-9-1,80,74,69,76,73,69,100,95,85,29.81,29.74,1,0,1,0.03
2013-9-2,72,70,67,72,70,67,100,100,99,29.77,29.67,3,0,3,1.03
2013-9-3,75,68,62,69,64,59,100,88,67,29.87,29.68,5,0,5,0.00
2013-9-4,75,66,57,65,60,56,98,84,65,29.99,29.86,2,0,2,0.00
2013-9-5,70,64,56,63,56,49,93,78,56,30.13,29.90,5,0,5,0.00
2013-9-6,66,57,48,52,47,44,91,71,51,30.24,30.11,4,0,4,0.00
2013-9-7,73,61,52,59,52,45,90,73,54,30.11,29.93,3,0,3,0.00
2013-9-8,74,66,56,67,56,48,93,71,59,30.05,29.81,5,0,5,0.00
2013-9-9,72,60,50,62,54,46,92,80,65,30.21,30.05,2,0,2,0.00
2013-9-10,81,71,63,76,69,61,100,94,83,30.14,30.02,1,0,1,0.00
2013-9-11,89,78,71,82,75,71,100,90,76,30.09,29.95,0,0,0,0.00
2013-9-12,79,72,65,77,71,65,100,97,87,29.95,29.66,7,0,7,0.63
2013-9-13,68,62,53,65,59,50,100,91,74,29.85,29.61,9,0,9,0.02
2013-9-14,58,52,46,51,48,45,94,85,74,30.12,29.84,10,1,10,0.00
2013-9-15,66,55,44,56,50,43,98,84,60,30.21,30.06,2,0,3,0.00
2013-9-16,66,58,51,58,55,48,99,89,71,30.23,30.00,1,0,1,0.02
2013-9-17,61,54,42,48,44,40,92,72,60,30.41,30.22,1,0,1,0.00
2013-9-18,66,55,46,53,47,43,93,77,58,30.33,30.16,0,0,0,0.00
2013-9-19,70,59,50,58,52,46,90,78,60,30.17,30.04,1,0,1,0.00
2013-9-20,75,63,55,64,58,54,96,85,62,30.06,29.95,0,0,0,0.00
2013-9-21,73,63,55,65,60,54,100,90,64,29.97,29.63,4,0,4,0.61
2013-9-22,61,56,50,61,52,43,100,86,67,29.90,29.62,5,0,7,0.14
2013-9-23,59,51,45,49,44,41,88,79,66,30.03,29.90,6,0,6,0.00
2013-9-24,66,57,42,53,48,40,93,74,54,30.04,29.89,5,1,5,0.00
2013-9-25,65,56,45,54,48,43,93,76,61,29.95,29.86,4,0,4,0.00
2013-9-26,68,59,52,60,55,49,98,86,71,30.07,29.91,3,0,3,0.00
2013-9-27,66,57,50,56,52,48,97,87,66,30.24,30.07,2,0,2,0.00
2013-9-28,70,59,52,58,54,51,95,83,61,30.30,30.21,3,0,3,0.00
2013-9-29,68,59,53,59,54,51,96,86,70,30.21,30.05,3,0,3,0.00
2013-9-30,69,59,52,58,53,48,97,81,62,30.06,29.96,3,0,3,0.00
2013-10-1,72,62,53,64,57,52,96,83,67,30.00,29.89,4,0,4,0.00
2013-10-2,77,67,57,66,61,55,95,82,66,29.99,29.91,5,0,5,0.00
2013-10-3,73,66,59,64,60,56,94,83,58,30.10,29.99,2,0,2,0.00
2013-10-4,78,69,63,70,65,62,98,88,72,30.04,29.95,0,0,0,0.00
2013-10-5,77,69,63,70,66,62,99,90,78,30.06,29.98,1,0,1,0.00
2013-10-6,65,64,62,65,64,62,100,100,97,30.04,29.96,3,0,4,0.04
2013-10-7,70,62,53,70,62,48,100,98,83,29.97,29.68,7,1,7,0.39
2013-10-8,61,55,48,51,48,45,90,77,65,30.31,29.96,6,0,6,0.00
2013-10-9,57,51,46,49,46,41,89,81,72,30.37,30.25,4,0,5,0.00
2013-10-10,56,53,49,55,51,46,98,93,85,30.25,30.04,5,0,5,0.07
2013-10-11,61,58,55,60,57,53,99,95,91,30.06,29.98,5,0,6,0.13
2013-10-12,68,60,54,58,51,41,93,71,43,30.23,30.03,7,0,7,0.00
2013-10-13,61,56,50,54,52,49,96,87,76,30.34,30.22,5,0,5,0.00
2013-10-14,64,54,46,55,50,46,99,88,69,30.34,30.21,4,0,4,0.00
2013-10-15,68,56,50,58,50,39,96,81,54,30.24,30.08,3,0,3,0.00
2013-10-16,62,56,51,58,54,49,99,93,80,30.08,29.88,2,0,2,0.00
2013-10-17,67,62,58,62,60,57,100,95,82,29.88,29.65,6,0,6,0.04
2013-10-18,62,55,49,62,48,43,100,78,62,29.97,29.65,12,1,12,0.01
2013-10-19,58,53,48,51,46,42,98,79,66,29.97,29.74,3,0,3,0.08
2013-10-20,57,49,42,51,42,38,98,76,53,30.05,29.75,10,1,10,0.01
2013-10-21,61,52,44,46,41,38,86,69,52,30.13,29.95,4,0,5,0.00
2013-10-22,57,49,45,50,42,35,97,79,59,29.95,29.74,3,0,6,0.00
2013-10-23,51,44,39,40,36,32,88,75,66,29.79,29.61,5,0,5,0.00
2013-10-24,48,40,34,36,33,29,95,77,53,30.00,29.75,9,1,9,0.00
2013-10-25,48,40,33,37,33,30,89,76,57,30.22,30.00,9,1,9,0.00
2013-10-26,50,42,33,35,33,30,88,73,53,30.21,29.87,10,0,10,0.00
2013-10-27,52,45,40,37,35,33,78,67,57,30.11,29.83,7,1,7,0.00
2013-10-28,56,45,37,40,35,31,81,69,54,30.29,30.11,6,0,6,0.00
2013-10-29,52,45,38,38,35,32,80,70,56,30.40,30.29,4,0,4,0.00
2013-10-30,54,48,41,50,44,32,98,87,71,30.33,30.16,2,0,3,0.00
2013-10-31,61,55,49,59,54,49,99,97,90,30.20,29.76,4,0,4,0.06
2013-11-1,66,61,55,63,57,51,99,88,66,29.76,29.49,12,1,14,0.22
2013-11-2,61,55,48,51,45,41,86,71,62,29.76,29.60,6,0,9,0.00
2013-11-3,48,41,30,42,32,21,88,73,53,30.44,29.76,12,2,12,0.00
2013-11-4,42,34,26,26,22,20,79,63,44,30.65,30.44,5,0,5,0.00
2013-11-5,51,43,34,42,36,24,89,76,65,30.63,30.45,4,0,4,0.00
2013-11-6,59,50,44,50,46,41,92,84,70,30.47,30.13,4,0,4,0.00
2013-11-7,56,45,38,55,42,33,99,87,76,30.04,29.77,5,1,13,0.15
2013-11-8,44,38,33,35,31,28,92,75,59,30.21,29.92,14,2,14,0.00
2013-11-9,46,38,31,35,30,27,85,73,55,30.28,29.96,4,1,5,0.00
2013-11-10,53,44,38,40,34,31,82,69,58,30.04,29.83,17,2,17,0.00
2013-11-11,49,43,36,36,32,27,72,66,58,30.20,29.94,14,1,14,0.00
2013-11-12,46,32,25,36,24,17,92,72,61,30.30,29.90,16,2,18,0.00
2013-11-13,34,28,23,22,18,14,77,66,50,30.38,30.28,15,2,17,0.00
2013-11-14,47,39,28,23,21,19,72,50,36,30.27,30.17,3,1,13,0.00
2013-11-15,53,46,39,30,26,21,52,46,36,30.23,30.14,5,0,5,0.00
2013-11-16,56,48,41,46,41,29,98,80,51,30.31,30.20,4,0,4,0.02
2013-11-17,57,52,46,57,52,46,100,99,97,30.24,29.73,6,0,6,0.05
2013-11-18,60,54,44,60,43,31,100,69,45,29.78,29.58,17,2,17,0.19
2013-11-19,44,38,30,32,27,23,72,65,59,30.34,29.77,16,4,19,0.00
2013-11-20,41,32,28,23,19,13,76,58,36,30.60,30.34,16,1,16,0.00
2013-11-21,47,38,29,40,30,17,87,71,55,30.59,30.36,4,0,4,0.00
2013-11-22,50,47,44,48,45,40,99,93,87,30.36,29.93,6,1,6,0.02
2013-11-23,49,33,24,48,23,10,96,67,53,30.06,29.91,17,3,17,0.01
2013-11-24,24,20,17,12,7,4,64,55,49,30.39,30.03,23,4,26,0.00
2013-11-25,30,23,16,18,14,8,82,66,58,30.49,30.31,7,1,7,0.00
2013-11-26,42,31,27,42,25,17,99,80,61,30.32,29.69,7,0,8,0.15
2013-11-27,57,39,28,57,38,21,100,95,72,29.77,29.36,20,4,20,0.79
2013-11-28,30,26,24,23,17,14,86,68,55,30.46,29.77,20,3,20,0.00
2013-11-29,32,27,22,23,20,15,80,75,65,30.73,30.45,5,0,5,0.00
2013-11-30,31,26,18,29,20,12,90,78,66,30.74,30.36,6,0,6,0.00
2013-12-1,43,36,30,33,30,28,93,79,66,30.37,30.00,4,0,4,0.00
2013-12-2,44,38,34,34,31,28,86,76,67,30.00,29.87,2,0,2,0.00
2013-12-3,48,40,35,38,35,32,94,82,64,29.99,29.87,3,0,5,0.00
2013-12-4,48,42,36,43,38,34,95,87,76,30.11,29.99,3,0,3,0.00
2013-12-5,48,45,44,47,44,43,100,98,95,30.09,30.04,4,0,4,0.03
2013-12-6,57,39,33,57,38,32,100,98,94,30.15,29.84,7,2,14,0.34
2013-12-7,33,30,25,32,26,18,98,86,75,30.51,30.07,12,2,12,0.01
2013-12-8,28,24,22,26,20,16,97,82,72,30.58,30.34,6,0,7,0.00
2013-12-9,32,31,27,32,30,26,99,98,97,30.34,29.98,4,0,4,0.05
2013-12-10,31,28,22,30,26,16,99,94,79,30.12,29.88,0,0,0,0.00
2013-12-11,28,23,19,19,16,14,80,76,66,30.32,30.12,7,1,7,0.00
2013-12-12,23,19,16,18,10,6,85,69,59,30.36,30.15,11,1,11,0.00
2013-12-13,30,23,14,20,14,5,73,68,64,30.32,30.12,11,1,11,0.00
2013-12-14,29,22,18,28,19,16,97,89,69,30.44,29.74,11,1,11,0.00
2013-12-15,32,27,20,31,26,19,98,94,85,29.83,29.55,7,0,8,0.01
2013-12-16,26,21,17,23,14,10,89,74,61,30.21,29.81,11,1,11,0.00
2013-12-17,23,19,16,22,16,11,95,90,71,30.20,29.93,4,0,4,0.00
2013-12-18,31,23,15,24,19,13,94,84,72,30.18,29.92,12,1,12,0.00
2013-12-19,39,31,23,29,24,18,86,76,67,30.17,30.03,4,0,4,0.03
2013-12-20,46,43,37,39,33,30,76,69,63,30.09,29.96,4,0,4,0.40
2013-12-21,54,50,46,53,46,39,97,85,74,29.99,29.88,6,1,6,0.00
2013-12-22,64,59,54,62,58,53,100,95,89,29.92,29.77,10,1,10,0.02
2013-12-23,57,50,34,56,49,28,100,96,77,30.13,29.88,12,1,13,0.13
2013-12-24,34,29,20,28,22,12,94,76,69,30.34,30.09,16,2,16,0.00
2013-12-25,22,18,13,16,11,7,79,72,64,30.52,30.34,13,1,13,0.01
2013-12-26,29,25,19,26,22,16,92,87,78,30.41,30.17,5,0,5,0.00
2013-12-27,36,29,23,25,22,19,84,75,64,30.35,30.25,4,1,11,0.00
2013-12-28,48,39,30,33,28,22,79,64,54,30.27,30.05,11,1,11,0.01
2013-12-29,44,40,37,39,34,29,99,82,59,30.05,29.44,16,1,16,0.81
2013-12-30,40,31,18,37,27,12,96,83,70,30.15,29.70,10,2,10,0.00
2013-12-31,26,18,14,21,12,10,85,79,75,30.16,30.05,5,0,5,0.00
2014-1-1,28,24,18,21,18,11,81,78,71,30.39,30.21,3,0,9,0.00
2014-1-2,26,21,10,21,18,8,93,89,79,30.20,29.67,11,1,11,0.00